Powrót do katalogu

COSMOS 2251 DEB

AktywnyLEO
NORAD 34474·DEBRIS·🇷🇺 Russia

Wystrzelony Jun 16, 1993 z Plesetsk Cosmodrome

Loading…

Następne Przeloty (najbliższe 24 godziny)

TLE

ŚwieżeSource: Space-Track

Epoka: Sep 14, 2026, 07:14 UTC

1 34474U 93036TT  26257.30190699  .00001145  00000-0  57235-3 0  9998
2 34474  74.0751 204.3308 0201257 212.9623 309.1390 14.07915328893858

Śledź COSMOS 2251 DEB w czasie rzeczywistym z AllMySat

Download on the App Store